Regional Weather Roundup
Issued by NWS

Home | Current Version | Previous Version | Text Only | Print | Product List | Glossary On
Versions: 1 2 3 4 5 6 7 8 9 10 11 12 13 14 15 16 17 18 19 20 21 22 23 24 25 26 27 28 29 30 31 32 33 34 35 36 37 38 39 40 41 42 43 44 45 46 47 48 49 50
000
ASUS43 KLSX 251959
RWRMO

WEATHER SUMMARY FOR MISSOURI
NATIONAL WEATHER SERVICE SPRINGFIELD MO
200 PM CST THU DEC 25 2014

NOTE: "FAIR" INDICATES FEW OR NO CLOUDS BELOW 12,000 FEET WITH NO
       SIGNIFICANT WEATHER AND/OR OBSTRUCTIONS TO VISIBILITY.
       CURRENT SKY AND/OR WEATHER CONDITIONS ARE NOT AVAILABLE FOR
       CHILLICOTHE AND FARMINGTON.

MOZ001>031-035>038-043-044-053-054-252100-
...NORTHERN AND WESTERN MISSOURI...

CITY           SKY/WX    TMP DP  RH WIND       PRES   REMARKS
KANSAS CTY INT PTSUNNY   53  30  41 S29G36    29.68F
KANSAS C DTWN  LGT RAIN  55  29  36 S25G38    29.72F
LEE`S SUMMIT   SUNNY     53  29  39 S20G32    29.73F
ST JOSEPH      MOSUNNY   54  32  43 S20G35    29.66F
CHILLICOTHE      N/A     52  31  44 S15G30    29.77F
KIRKSVILLE     SUNNY     50  31  48 S18       29.82F

$$
MOZ066>068-077>081-088>096-101>105-252100-
...SOUTHWEST MISSOURI...

CITY           SKY/WX    TMP DP  RH WIND       PRES   REMARKS
SPRINGFIELD    MOSUNNY   53  27  36 S21       29.87F
JOPLIN         SUNNY     56  27  32 S22G37    29.83S

$$
MOZ032>034-039>042-045>050-055>058-069>072-252100-
...CENTRAL MISSOURI...

CITY           SKY/WX    TMP DP  RH WIND       PRES   REMARKS
COLUMBIA       SUNNY     51  31  46 S17G26    29.88F
JEFFERSON CITY SUNNY     53  28  38 S15G22    29.89F
ROLLA          SUNNY     50  29  44 S17G26    29.91F
SEDALIA        SUNNY     54  27  35 S23G33    29.83F
OSAGE BEACH    SUNNY     54  27  35 S16G26    29.90S

$$
MOZ051-052-059>065-252100-
...EAST CENTRAL MISSOURI...

CITY           SKY/WX    TMP DP  RH WIND       PRES   REMARKS
ST LOUIS INTL  MOSUNNY   53  32  44 S9        29.97F
SPIRIT OF STL  SUNNY     53  29  39 S10G16    29.95F
ST CHARLES     SUNNY     52  34  50 S15       29.96S

$$
MOZ072>076-082>087-097>100-106>115-252100-
...SOUTH CENTRAL AND SOUTHEAST MISSOURI...

CITY           SKY/WX    TMP DP  RH WIND       PRES   REMARKS
CAPE GIRARDEAU SUNNY     48  38  68 S17G25    30.08F
FARMINGTON     SUNNY     48  32  53 SE18G25   30.02S
POPLAR BLUFF   SUNNY     50  36  58 S13       30.07F
WEST PLAINS    SUNNY     49  30  48 S10       29.99F

$$


USA.gov is the U.S. government's official web portal to all federal, state and local government web resources and services.